www.pogodaiklimat.ru

Погода и климат >> Архив погоды >> Швейцария >> Базель Биннинген


ПОГОДА в Базель Биннингене

  • Прогноз погоды в Базель Биннингене
  • Монитор погоды в Базель Биннингене

АРХИВ ПОГОДЫ в Базель Биннингене

Время (UTC), дата Ветер
(напр.,м/с)
 
Видим.   Явления Облачность Т
(С)
Тd
(С)
f
(%)
Тe
(С)
Тes
(С)
Комфортность P
(гПа)
Po
(гПа)
Тmin
(С)
Tmax
(С)
R
(мм)
R24
(мм)
S
(см)
13 9.07 С 2
{7}
н/о н/о +22.3 +10.4 47 +24 +24 комфорт 1016.0 979.7
14 9.07 С 3
{8}
н/о н/о +22.7 +10.0 44 +24 +24 комфорт 1015.4 979.2
15 9.07 С 4
{9}
н/о н/о +23.0 +10.0 44 +25 +25 комфорт 1015.2 979.0
16 9.07 С 3
{8}
н/о н/о +22.7 +9.5 43 +24 +24 комфорт 1014.8 978.6
17 9.07 СЗ 3
{10}
н/о н/о +22.1 +8.7 42 +23 +23 комфорт 1014.9 978.6
18 9.07 С 4 55 км 3/3 1500 м
[]
+20.9 +7.3 41 +22 +23 комфорт 1015.3 978.8 +23.6
19 9.07 С 2
{9}
н/о н/о +19.6 +6.9 44 +21 +21 комфорт 1016.2 979.5
20 9.07 С 3
{9}
н/о н/о +18.4 +5.3 42 +19 +19 1017.1 980.3
21 9.07 СЗ 3
{9}
н/о н/о +17.4 +4.7 43 +18 +18 1017.4 980.4
22 9.07 З 1
{7}
н/о н/о +15.6 +5.6 51 +16 +16 1018.2 980.9
23 9.07 ЮЗ 2
{3}
н/о н/о +14.1 +6.0 58 +14 +14 1018.7 981.2
00 10.07 З 2
{9}
н/о н/о +13.6 +6.2 61 +13 +13 1018.9 981.4
01 10.07 З 1
{2}
н/о н/о +12.6 +6.4 66 +13 +13 1019.1 981.4
02 10.07 ЮЗ 2
{3}
н/о н/о +10.7 +7.0 78 +10 +10 1019.4 981.4
03 10.07 З 1
{3}
н/о н/о +10.9 +6.8 76 +11 +11 1019.4 981.5
04 10.07 ЮЗ 2
{2}
н/о н/о +9.5 +7.2 86 +8 +8 1019.7 981.6
05 10.07 СЗ 1
{2}
н/о н/о +11.5 +6.9 73 +11 +11 1019.7 981.8
06 10.07 З 1 50 км 3/0
[]
+13.3 +7.9 70 +14 +17 1019.4 981.8 +9.2
07 10.07 З 1
{2}
н/о н/о +14.5 +7.6 63 +15 +15 1019.4 982.0
08 10.07 С 1
{3}
н/о н/о +16.4 +6.7 53 +17 +17 1019.2 982.0
09 10.07 СВ 2
{4}
н/о н/о +18.9 +7.5 47 +20 +20 1018.7 981.9
10 10.07 С 2
{4}
н/о н/о +20.0 +8.5 47 +22 +22 комфорт 1018.4 981.7
11 10.07 С 2
{5}
н/о н/о +20.4 +8.2 45 +22 +22 комфорт 1018.0 981.4
12 10.07 З 2
{5}
60 км 3/3 1300 м
[]
+21.9 +8.5 42 +23 +36 комфорт 1017.6 981.2
13 10.07 С 2
{4}
н/о н/о +23.2 +9.0 40 +25 +25 комфорт 1017.0 980.8
14 10.07
{5}
н/о н/о +23.0 +7.3 36 1016.6 980.4
15 10.07 СВ 2
{6}
н/о н/о +24.8 +8.8 36 +25 +25 комфорт 1016.2 980.2
16 10.07 СЗ 2
{5}
н/о н/о +23.6 +7.1 35 +24 +24 комфорт 1016.4 980.2
17 10.07 СЗ 2
{5}
н/о н/о +23.1 +6.6 34 +24 +24 комфорт 1016.2 980.0
18 10.07 С 2 70 км 4/4 1500 м
[]
+22.8 +7.0 36 +24 +24 комфорт 1016.1 979.9 +24.8
19 10.07 СЗ 2
{4}
н/о н/о +21.6 +6.5 38 +22 +22 комфорт 1016.4 980.0
20 10.07 З 1
{3}
н/о н/о +18.6 +8.6 52 +20 +20 1017.0 980.2
21 10.07 ЮЗ 2
{4}
н/о н/о +17.1 +9.2 60 +17 +17 1017.1 980.1
22 10.07 ЮЗ 2
{4}
н/о н/о +16.3 +8.7 61 +16 +16 1017.3 980.2
23 10.07 ЮЗ 1
{3}
н/о н/о +15.1 +8.9 66 +16 +16 1017.3 980.0
00 11.07 штиль 0
{4}
н/о н/о +14.6 +9.2 70 +14 +14 1016.9 979.6
01 11.07 В 1
{2}
н/о н/о +14.3 +9.4 72 +15 +15 1016.4 979.0
02 11.07 В 1
{3}
н/о н/о +15.2 +9.3 68 +16 +16 1015.8 978.6
03 11.07 В 1
{4}
н/о н/о +14.3 +9.5 73 +15 +15 1015.7 978.4
04 11.07 В 2
{4}
н/о н/о +13.7 +9.3 75 +13 +13 1015.6 978.2
05 11.07 В 1
{3}
н/о н/о +14.4 +9.3 71 +16 +16 1015.5 978.2
06 11.07 В 2 55 км 9/9 1000 м
[]
+15.6 +9.5 67 +16 +16 1015.3 978.2 +13.7
07 11.07 В 1
{3}
н/о н/о +16.5 +10.4 67 +17 +17 1015.3 978.3
08 11.07 В 1
{2}
н/о н/о +17.4 +9.7 61 +19 +19 1015.5 978.6
09 11.07 В 1
{3}
н/о н/о +18.7 +10.6 59 +21 +21 комфорт 1014.9 978.2
10 11.07 З 1
{2}
н/о н/о +19.8 +10.6 55 +23 +23 комфорт 1015.4 978.8
11 11.07 С 1
{3}
н/о н/о +20.6 +10.1 51 +23 +23 комфорт 1014.8 978.3
12 11.07 СЗ 2
{4}
50 км 10/10 1470 м
[]
+20.5 +11.2 55 +23 +23 комфорт 1014.6 978.1
13 11.07 СЗ 2
{6}
н/о н/о +17.8 +11.6 67 +19 +19 1015.6 978.7 0.1
14 11.07 В 1
{3}
н/о н/о +17.1 +12.6 75 +19 +19 1015.4 978.4 0.6
15 11.07 СВ 1
{6}
н/о н/о +17.5 +12.8 74 +19 +19 1015.1 978.2 0.1
16 11.07 Ю 1
{2}
н/о н/о +17.7 +14.0 79 +19 +19 1015.2 978.3 0.2
17 11.07 Ю 1
{2}
н/о н/о +17.9 +14.6 81 +19 +19 1015.5 978.6
18 11.07 Ю 2
{6}
55 км {дождь} 8/0
[]
+18.0 +14.0 77 +19 +19 1015.3 978.5 +20.9
19 11.07 ЮВ 1
{3}
н/о н/о +17.3 +14.1 81 +19 +19 1015.3 978.4
20 11.07 В 1
{2}
н/о н/о +17.2 +14.3 83 +18 +18 1015.5 978.6
21 11.07 В 1
{3}
н/о н/о +17.1 +14.4 84 +18 +18 1015.6 978.6
22 11.07 В 1
{3}
н/о н/о +16.5 +14.2 86 +17 +17 1015.5 978.5
23 11.07 В 1
{3}
н/о н/о +15.8 +13.5 86 +16 +16 1015.2 978.1
00 12.07 В 1
{3}
н/о н/о +15.0 +13.6 91 +15 +15 1014.9 977.7
01 12.07 В 2
{5}
н/о н/о +15.1 +13.2 88 +15 +15 1014.6 977.4
02 12.07 В 2
{4}
н/о н/о +15.2 +12.8 86 +15 +15 1014.4 977.2
03 12.07 В 2
{5}
н/о н/о +15.1 +12.3 83 +15 +15 1014.3 977.1
04 12.07 ЮВ 1
{5}
н/о н/о +15.0 +11.9 82 +15 +15 1014.4 977.2
05 12.07 В 2
{5}
н/о н/о +15.3 +12.4 83 +15 +15 1014.2 977.1
06 12.07 В 2
{5}
35 км 8/0 2000 м
[]
+16.0 +12.6 80 +16 +18 1013.9 976.9 +14.8
07 12.07 В 3
{7}
н/о н/о +16.9 +13.2 79 +17 +17 1014.1 977.2
08 12.07 В 2
{5}
н/о н/о +18.5 +13.7 74 +20 +20 1014.2 977.5
09 12.07 ЮВ 2
{7}
н/о н/о +19.9 +14.0 69 +23 +23 комфорт 1013.7 977.2
10 12.07 В 2
{4}
н/о н/о +21.7 +14.1 62 +25 +25 комфорт 1013.5 977.2
11 12.07 ЮВ 2
{6}
н/о н/о +24.2 +14.6 55 +27 +27 жарко 1013.0 977.0
12 12.07 З 5
{10}
50 км 9/0 2000 м
[]
+26.0 +10.9 39 +27 +32 жарко 1012.1 976.4
13 12.07 З 4
{11}
н/о н/о +26.9 +11.9 39 +28 +28 жарко 1011.6 976.0
14 12.07 З 5
{9}
н/о н/о +26.4 +12.2 41 +28 +28 жарко 1011.5 975.9
15 12.07 З 5
{13}
н/о н/о +25.6 +12.0 43 +27 +27 жарко 1011.4 975.7
16 12.07 З 6
{13}
н/о н/о +26.2 +11.8 41 +28 +28 жарко 1011.2 975.6
17 12.07 З 4
{12}
н/о н/о +25.4 +12.0 43 +27 +27 жарко 1011.7 975.9
18 12.07 З 3
{13}
50 км 8/8 1470 м
[]
+24.5 +11.1 43 +26 +26 жарко 1012.2 976.3 +27.2
19 12.07 З 3
{6}
н/о н/о +23.3 +10.7 45 +25 +25 комфорт 1013.0 976.9
20 12.07 З 2
{6}
н/о н/о +22.5 +9.6 44 +24 +24 комфорт 1013.6 977.4
21 12.07 ЮЗ 3
{6}
н/о н/о +21.4 +9.9 48 +23 +23 комфорт 1013.9 977.6
22 12.07 СЗ 2
{5}
н/о н/о +20.8 +10.2 51 +23 +23 комфорт 1014.6 978.2
23 12.07
{10}
н/о н/о +17.4 +12.5 73 1016.4 979.4
00 13.07 ЮЗ 1
{10}
н/о н/о +15.6 +13.8 89 +17 +17 1016.9 979.7 3
01 13.07 Ю 3
{5}
н/о н/о +15.6 +13.8 89 +15 +15 1016.3 979.1
02 13.07 СЗ 1
{5}
н/о н/о +15.5 +14.3 93 +16 +16 1016.8 979.6
03 13.07 Ю 1
{5}
н/о н/о +15.2 +14.4 95 +16 +16 1017.1 979.8
04 13.07 ЮЗ 1
{2}
н/о н/о +14.5 +13.7 95 +16 +16 1017.6 980.2
05 13.07 Ю 1
{2}
н/о н/о +15.2 +14.3 94 +16 +16 1017.8 980.5
06 13.07 В 1
{5}
35 км {ливн. осадки, дождь} 8/8 270 м
[]
+16.2 +14.8 91 +18 +18 1018.2 981.0 +14.3
07 13.07 СЗ 1
{2}
н/о н/о +17.7 +13.8 78 +19 +19 1018.2 981.2
08 13.07 С 2
{4}
н/о н/о +18.8 +11.9 64 +20 +20 1018.2 981.4
09 13.07 С 2
{7}
н/о н/о +20.2 +10.8 55 +23 +23 комфорт 1017.9 981.3
10 13.07 З 2
{5}
н/о н/о +20.6 +10.2 51 +23 +23 комфорт 1017.9 981.3
11 13.07 СЗ 2
{6}
н/о н/о +21.5 +10.3 49 +23 +23 комфорт 1017.5 981.0
12 13.07 СЗ 4
{8}
35 км 8/0 2000 м
[]
+22.2 +8.0 40 +23 +30 комфорт 1017.3 980.9
13 13.07 СЗ 3
{8}
н/о н/о +21.8 +9.5 45 +23 +23 комфорт 1017.0 980.6
14 13.07
{6}
н/о н/о +22.5 +10.9 48 1016.8 980.5
15 13.07 СЗ 2
{8}
н/о н/о +22.6 +10.4 46 +24 +24 комфорт 1016.6 980.3
16 13.07 С 2
{5}
н/о н/о +23.2 +10.5 45 +25 +25 комфорт 1016.4 980.2
17 13.07
{5}
н/о н/о +21.8 +9.9 47 1016.6 980.2
18 13.07 С 2
{8}
35 км 8/0 2000 м
[]
+21.1 +10.0 49 +23 +23 комфорт 1016.8 980.3 +23.5
19 13.07 С 1
{4}
н/о н/о +20.5 +10.3 52 +23 +23 комфорт 1017.1 980.5
20 13.07 СЗ 1
{3}
н/о н/о +19.2 +10.0 55 +21 +21 комфорт 1017.7 980.9
21 13.07 ЮЗ 1
{4}
н/о н/о +17.5 +11.7 69 +19 +19 1018.0 981.0
22 13.07 ЮЗ 1
{2}
н/о н/о +16.3 +11.9 75 +17 +17 1018.0 980.8
23 13.07 Ю 1
{2}
н/о н/о +15.6 +11.7 78 +16 +16 1017.8 980.6
00 14.07 ЮЗ 1
{4}
н/о н/о +14.5 +11.2 81 +16 +16 1017.7 980.3
01 14.07 ЮВ 1
{2}
н/о н/о +14.0 +11.0 82 +15 +15 1017.5 980.1
02 14.07 Ю 1
{1}
н/о н/о +12.8 +10.6 86 +14 +14 1017.5 979.9
03 14.07 ЮЗ 1
{2}
н/о н/о +12.2 +10.4 89 +13 +13 1017.2 979.5
04 14.07 Ю 1
{2}
н/о н/о +12.3 +10.3 88 +12 +12 1016.9 979.3
05 14.07 ЮВ 1
{2}
н/о н/о +13.4 +10.6 83 +14 +14 1016.6 979.1
06 14.07 СЗ 1
{2}
25 км ясно +15.2 +11.8 80 +16 +20 1016.2 979.0 +11.6
07 14.07 ЮВ 1
{2}
н/о н/о +17.3 +11.7 70 +19 +19 1016.1 979.1
08 14.07 СЗ 2
{4}
н/о н/о +18.3 +11.5 65 +19 +19 1015.9 979.1
09 14.07 СЗ 2
{5}
н/о н/о +20.3 +11.6 57 +23 +23 комфорт 1015.3 978.8
10 14.07 СЗ 2
{5}
н/о н/о +21.4 +11.9 55 +24 +24 комфорт 1014.9 978.5
11 14.07 С 2
{5}
н/о н/о +23.7 +12.0 48 +25 +25 комфорт 1014.1 978.0
12 14.07 С 3
{7}
30 км 5/0 2000 м
[]
+23.5 +11.6 47 +25 +36 комфорт 1013.3 977.2
13 14.07
{9}
н/о н/о +22.0 +13.4 58 1012.9 976.7
14 14.07 С 4
{13}
н/о н/о +21.6 +13.4 60 +24 +24 комфорт 1013.3 977.0
15 14.07 С 4
{14}
н/о н/о +20.0 +13.1 64 +22 +22 комфорт 1013.8 977.3
16 14.07 С 4
{10}
н/о н/о +18.4 +13.6 74 +19 +19 1014.1 977.4
17 14.07 СЗ 4
{11}
н/о н/о +16.3 +14.1 87 +16 +16 1015.3 978.2
18 14.07 СЗ 3
{14}
12 км дождь 10/10 480 м
[]
+15.2 +14.0 93 +15 +15 1015.9 978.7 +24.5 2
19 14.07 С 2
{5}
н/о н/о +15.2 +14.2 94 +15 +15 1016.0 978.8 3
20 14.07 СЗ 1
{5}
н/о н/о +14.8 +13.7 93 +15 +15 1016.2 978.9 0.1
21 14.07 СЗ 1
{5}
н/о н/о +14.9 +13.5 91 +16 +16 1016.6 979.3 0.3
22 14.07 СЗ 1
{2}
н/о н/о +14.9 +14.1 95 +16 +16 1016.3 979.0 0.6
23 14.07 З 1
{2}
н/о н/о +14.8 +14.1 96 +15 +15 1016.2 978.9 2
00 15.07 СЗ 1
{5}
н/о н/о +14.4 +13.8 96 +15 +15 1015.9 978.6 6
01 15.07 СЗ 2
{5}
н/о н/о +14.1 +13.4 96 +13 +13 1015.6 978.2 2
02 15.07 СЗ 2
{5}
н/о н/о +13.6 +12.7 94 +13 +13 1015.2 977.8
03 15.07 СЗ 2
{5}
н/о н/о +13.2 +12.2 94 +13 +13 1015.5 978.0
04 15.07 СЗ 2
{5}
н/о н/о +12.9 +11.9 94 +12 +12 1015.5 978.0
05 15.07 СЗ 2
{4}
н/о н/о +12.7 +11.5 92 +12 +12 1015.9 978.3
06 15.07 СЗ 2
{6}
20 км {ливн. осадки} 10/10 180 м
[]
+12.7 +11.2 91 +12 +12 1016.4 978.8 +12.7
07 15.07 СЗ 2
{5}
н/о н/о +13.4 +11.5 88 +13 +13 1016.4 978.9
08 15.07 СЗ 2
{5}
н/о н/о +14.4 +11.8 84 +14 +14 1016.6 979.2
09 15.07 З 2
{5}
н/о н/о +15.1 +12.2 83 +15 +15 1016.7 979.4
10 15.07 З 3
{5}
н/о н/о +18.2 +13.7 75 +19 +19 1016.1 979.3
11 15.07 С 2
{4}
н/о н/о +18.2 +12.8 71 +19 +19 1016.0 979.2
12 15.07 Ю 3
{5}
20 км 9/9 700 м
[]
+18.7 +14.0 74 +20 +21 1015.9 979.1
13 15.07
{6}
н/о н/о +20.6 +13.5 64 1015.3 978.8
14 15.07 СЗ 3
{6}
н/о н/о +21.7 +13.3 59 +24 +24 комфорт 1015.2 978.8
15 15.07 СЗ 3
{7}
н/о н/о +22.7 +13.0 54 +26 +26 жарко 1014.8 978.6
16 15.07 СЗ 4
{8}
н/о н/о +22.0 +12.8 56 +25 +25 комфорт 1014.6 978.3
17 15.07 СЗ 4
{7}
н/о н/о +22.5 +12.6 54 +25 +25 комфорт 1014.6 978.4
18 15.07 С 1
{8}
35 км 4/4 1500 м
[]
+21.6 +13.0 58 +24 +25 комфорт 1014.9 978.5 +23.8
19 15.07 С 2
{7}
н/о н/о +21.0 +12.6 59 +24 +24 комфорт 1015.5 979.0
20 15.07 СЗ 2
{6}
н/о н/о +20.0 +12.2 61 +23 +23 комфорт 1016.0 979.4
21 15.07 СЗ 1
{7}
н/о н/о +18.5 +12.4 68 +20 +20 1016.6 979.8
22 15.07 ЮЗ 2
{3}
н/о н/о +15.8 +12.8 82 +16 +16 1017.3 980.1
23 15.07 ЮЗ 2
{3}
н/о н/о +15.5 +12.6 83 +15 +15 1017.5 980.3
00 16.07 ЮЗ 2
{7}
н/о н/о +15.2 +12.5 84 +15 +15 1017.8 980.5
01 16.07 З 2
{3}
н/о н/о +14.5 +12.0 85 +14 +14 1018.1 980.7
02 16.07 З 2
{3}
н/о н/о +13.5 +11.3 87 +13 +13 1018.4 980.9
03 16.07 ЮЗ 2
{3}
н/о н/о +12.3 +10.8 91 +12 +12 1018.5 980.8
04 16.07 З 1
{2}
н/о н/о +12.4 +10.6 89 +12 +12 1018.5 980.8
05 16.07 З 1
{2}
н/о н/о +12.6 +10.8 89 +13 +13 1018.8 981.1
06 16.07 ЮЗ 1
{3}
2000 м дымка 10/10 270 м
[]
+12.8 +11.0 89 +13 +13 1018.9 981.2 +12.3
07 16.07 СЗ 1
{3}
н/о н/о +13.9 +11.6 86 +14 +14 1018.7 981.2
08 16.07 З 2
{4}
н/о н/о +15.3 +12.2 82 +15 +15 1018.6 981.3
09 16.07 З 1
{4}
н/о н/о +17.7 +12.6 72 +19 +19 1017.8 980.8
10 16.07 С 2
{3}
н/о н/о +20.8 +13.3 62 +24 +24 комфорт 1017.3 980.8
11 16.07 ЮЗ 1
{5}
н/о н/о +22.3 +13.0 56 +25 +25 комфорт 1016.7 980.4

 

Местоположение метеостанции Базель Биннинген (Швейцария): широта 47.55 долгота 7.58 высота над уровнем моря 316 м.

В архиве по умолчанию представлена погода в Базель Биннингене за последнюю неделю. Архивные данные за месяц целиком и за предыдущие месяцы, начиная с января 2011 года, Вы можете получить, выбрав интересующий диапазон дат из раскрывающегося списка и нажав кнопку "Ввод!".


*Определитесь, кто Вы:
робот инопланетянин человек

Внимание! Время в таблицах - всемирное. Для получения местного времени необходимо прибавить поправку, которая равна 1 ч.

Смотрите также архив погоды в соседних городах и на ближайших метеорологических станциях:

Погода в Евроаэропорту (Франция) (7 км)
Погода в Рейнфельдене (Швейцария) (17 км)
Погода в Мёлине (Швейцария) (23 км)
Погода в Рюненберге (Швейцария) (26 км)
Погода в Лангенбруке (Швейцария) (26 км)
Погода в Делемоне (Швейцария) (27 км)
Погода в Веве (Швейцария) (27 км)
Погода в Лауфенбурге (Швейцария) (35 км)
Погода в Госгене (Швейцария) (36 км)
Погода в Винау (Швейцария) (37 км)

Пояснения к столбцам:

Ветер - указаны скорость ветра в м/с - средняя за 10 мин, порывы в срок и между сроками (в фигурных скобках) и направление, откуда дует ветер: С - северный, СВ - северо-восточный, В - восточный, ЮВ - юго-восточный, Ю - южный, ЮЗ - юго-западный, З - западный, СЗ - северо-западный.
Видимость - горизонтальная дальность видимости в метрах или километрах. При видимости от 1 до 10 км при отсутствии осадков обычно наблюдается дымка, при ухудшении видимости до 1 км и менее - туман. В сухую погоду видимость может ухудшаться дымом, пылью или мглою.
Явления - указаны атмосферные явления, наблюдавшиеся в срок или в последний час перед сроком; фигурными скобками обозначены явления, наблюдавшиеся между сроками (за 1-3 часа до срока); квадратными скобками обозначены град или гололедные отложения с указанием их диаметра в мм.
Облачность - указаны через наклонную черту общая и нижняя облачность в баллах и высота нижней границы облаков в метрах; квадратными скобками обозначены формы облаков: Ci - перистые, Cs - перисто-слоистые, Cc - перисто-кучевые, Ac - высококучевые, As - высокослоистые, Sc - слоисто-кучевые, Ns - слоисто-дождевые, Cu - кучевые, Cb - кучево-дождевые. Подробнее классификацию облаков см. в Атласе облаков (PDF).
T - Температура воздуха - температура, измеренная на высоте 2 м над землей.
Td - Температура точки росы - температура, при понижении до которой содержащийся в воздухе водяной пар достигнет насыщения.
f - Относительная влажность воздуха - влажноcть воздуха, измеренная на высоте 2 м над землей.
Te - Эффективная температура - температура, которую ощущает одетый по сезону человек в тени. Характеристика душности погоды. При расчете учитывается влияние влажности воздуха и скорости ветра на теплоощущения человека.
Tes - Эффективная температура на солнце - температура, которую ощущает человек, с поправкой на солнечный нагрев. Характеристика знойности погоды. Зависит от высоты солнца над горизонтом, облачности и скорости ветра. Ночью, в пасмурную погоду, а также при ветре 12 м/с и более поправка равна нулю.
P - Атмосферное давление - приведенное к уровню моря атмосферное давление.
Po - Атмосферное давление - измеренное на уровне метеостанции атмосферное давление.
Tmin - Минимальная температура - минимум температуры воздуха на высоте 2 м над землей.
Tmax - Максимальная температура - максимум температуры воздуха на высоте 2 м над землей.
R - Количество осадков - Количество выпавших осадков за период времени, мм. При наведении курсора мыши на число - период времени, за который выпало указанное количество осадков.
R24 - Количество осадков - Количество выпавших осадков за 24 часа, мм.
S - Снежный покров - Высота снежного покрова, см. При наведении курсора мыши на число - состояние снежного покрова и степень покрытия местности в баллах.